Lexington Weather

Lexington, Massachusetts, USA

56°F
5/17/2024 10:53pm 
  • Lexington Conditions: Mostly cloudy
  • Temperature: 55.9°F / 13.3°CColder 1.5°F than last hour.
  • Dew Point: 50.2°F 
  • Relative Humidity: 81%Increased 4.0% since last hour.
  • Wind: Calm, 10-min avg: Calm, gust: None
  • Barometer: 29.96 in Steady
  • Visibility: 10 miles
  • Rain Today: 0.00 in
  •   

Regional Weather Roundup
for Boston, MA

        
000
ASUS41 KBOX 170510
RWRBOX

REGIONAL WEATHER ROUNDUP
NATIONAL WEATHER SERVICE BOSTON/NORTON MA
100 AM EDT FRI MAY 17 2024

NOTE:  "FAIR" INDICATES FEW OR NO CLOUDS BELOW 12,000 FEET WITH NO 
SIGNIFICANT WEATHER AND/OR OBSTRUCTIONS TO VISIBILITY.

MAZALL-170600-
EASTERN MASSACHUSETTS
  
CITY           SKY/WX    TMP DP  RH WIND       PRES   REMARKS
BOSTON         PTCLDY    53  51  93 N8        29.93F                  
BEVERLY        CLEAR     51  49  92 N7        29.93F                  
LAWRENCE       CLEAR     51  50  96 NE5       29.96F                  
BEDFORD        CLEAR     50  49  96 NE3       29.93F                  
NORWOOD        CLEAR     53  50  89 N3        29.93F                  
MARSHFIELD     CLOUDY    54  50  87 VRB5G12   29.91S                  
PLYMOUTH       MOCLDY    54  50  86 NE9       29.90S                  
TAUNTON        MOCLDY    54  50  86 N3        29.91S                  
NEW BEDFORD    CLOUDY    57  52  83 N6        29.88S                  
$$

MAZALL-170600-
CAPE COD AND THE ISLANDS
  
CITY           SKY/WX    TMP DP  RH WIND       PRES   REMARKS
FALMOUTH       CLOUDY    55  52  88 NE18      29.88S                  
HYANNIS        CLOUDY    57  52  83 NE13      29.86S                  
CHATHAM        CLOUDY    54  51  90 NE13G21   29.88S                  
PROVINCETOWN   PTCLDY    52  51  97 NE8       29.91F                  
NANTUCKET      LGT RAIN  54  53  97 NE18G30   29.84F FOG              
MARTHAS VNYRD  CLOUDY    58  55  90 NE16G28   29.85S                  
$$
 
MAZALL-170600-
CENTRAL AND WESTERN MASSACHUSETTS
  
CITY           SKY/WX    TMP DP  RH WIND       PRES   REMARKS
WORCESTER      CLEAR     53  50  89 NE7       29.93F                  
FITCHBURG      CLEAR     53  50  89 NW3       29.96S                  
ORANGE         CLEAR     51  49  92 CALM      29.96R                  
SPRINGFIELD    CLEAR     52  50  92 NE3       29.91S                  
WESTFIELD      CLEAR     53  52  96 N5        29.92F                  
NORTH ADAMS    CLEAR     51  49  92 CALM      29.94S                  
PITTSFIELD     CLEAR     52  48  86 CALM      29.93S                  
$$
 
RIZALL-170600-
RHODE ISLAND
  
CITY           SKY/WX    TMP DP  RH WIND       PRES   REMARKS
PROVIDENCE     CLOUDY    55  52  89 NE10      29.91F                  
NEWPORT        CLOUDY    55  51  86 N10       29.88F                  
BLOCK ISLAND   CLOUDY    54  52  93 NE16G24   29.86F                  
SMITHFIELD     PTCLDY    52  52 100 N7        29.92F                  
WESTERLY       CLOUDY    57  52  83 NE9       29.87F                  
$$
 
CTZALL-170600-
CONNECTICUT
  
CITY           SKY/WX    TMP DP  RH WIND       PRES   REMARKS
BRADLEY INTL   MOCLDY    58  52  80 N6        29.93S                  
HARTFORD       CLOUDY    59  54  83 N8        29.91F                  
PLAINVILLE     CLOUDY    58  55  89 N6        29.91F                  
BRIDGEPORT     CLOUDY    61  53  75 NE10G21   29.88F                  
DANBURY        CLOUDY    60  53  77 NE8       29.91F                  
GROTON         CLOUDY    60  54  80 NE15      29.87S                  
NEW HAVEN      CLOUDY    62  54  74 NE10      29.88S                  
CHESTER        CLOUDY    59  55  88 NE10G16   29.89S                  
MERIDEN        CLOUDY    59  51  75 VRB7      29.90F                  
WILLIMANTIC    CLOUDY    56  51  84 NE8       29.91F                  
OXFORD         CLOUDY    57  52  83 NE8       29.91F                  
$$

MEZ002-015-021-024-NHZ003-005-008-011-012-014-VTZ005-008-170600-
NORTHERN NEW ENGLAND
  
CITY           SKY/WX    TMP DP  RH WIND       PRES   REMARKS
PORTLAND ME    CLEAR     49  47  93 CALM      29.97F                  
BANGOR ME      CLEAR     53  52  96 CALM      29.97S                  
CONCORD NH     CLEAR     49  49 100 NE3       29.96S                  
MANCHESTER NH  CLEAR     53  50  89 CALM      29.95S                  
NASHUA NH      CLEAR     53  32  44 CALM      29.96F                  
PORTSMOUTH NH  PTCLDY    51  49  92 CALM      29.95S                  
JAFFREY NH     CLEAR     51  47  86 CALM      29.96F                  
KEENE NH       CLEAR     50  50 100 CALM      29.96S FOG              
BURLINGTON VT  CLOUDY    62  55  77 E5        29.92S                  
MT. WASHINGTON PTCLDY    39  37  93 E22         N/A  WCI  29          
$$

NYZ052-076-170600-
EASTERN NEW YORK
  
CITY           SKY/WX    TMP DP  RH WIND       PRES   REMARKS
ALBANY         PTCLDY    59  50  72 E6        29.92F                  
NEW YORK CITY  CLOUDY    61  52  72 E12       29.86F                  
$$
 
ANZALL-170600-
MARINE OBSERVATIONS
  
STATION/POSITION TIME  TEMP    WIND        PRES    VSBY  WAVE
                       AIR SEA DIR/SP/G                  HT/PER
                 (UTC) (F)     (DEG/KT/KT) (MB)    (MI)  (FT/S)
BOSTON BUOY      0440   53 53  360/ 10/ 12 1014.0R
BUZZARDS BAY     0400   55      40/ 21/ 22 1011.3F
NANTUCKET SOUND  0440   57 54   50/ 19/ 25 1010.4F
MASS BAY-STELLWA 0304   53 51   30/  8/ 10 1013.9R  1 7/8  3/11
ISLE OF SHOALS   0400   53      20/  9/ 10 1013.7R
S OF BLOCK IS    0456      48                N/A           8/ 9
$$

......................KEY.........................
  SKY/WX - SKY CONDITION/PRESENT WEATHER
  TMP    - TEMPERATURE IN FAHRENHEIT
  DWPT   - DEWPOINT IN FAHRENHEIT
  RH     - RELATIVE HUMIDITY IN PERCENT
  WIND   - DIRECTION AND SPEED IN MPH
  PRES   - MEAN SEA LEVEL PRESSURE IN INCHES OF HG
  WCI    - WIND CHILL INDEX
  VSB    - VISIBILITY IN MILES
  HX     - HEAT INDEX
  TC     - TEMPERATURE IN CELSIUS
  VRB    - VARIABLE WIND DIRECTION
  N/A    - NOT AVAILABLE
  
      

Other recent Regional Weather Roundups

Fri May 17, 10:10pm EDT

Fri May 17, 9:10pm EDT

Fri May 17, 8:10pm EDT

Fri May 17, 7:10pm EDT

Fri May 17, 6:10pm EDT

Fri May 17, 5:10pm EDT

Fri May 17, 4:10pm EDT

Fri May 17, 3:10pm EDT

Fri May 17, 2:10pm EDT

Fri May 17, 1:10pm EDT

Fri May 17, 12:10pm EDT

Fri May 17, 11:10am EDT

Fri May 17, 10:10am EDT

Fri May 17, 9:10am EDT

Fri May 17, 8:10am EDT

Fri May 17, 7:10am EDT

Fri May 17, 6:10am EDT

Fri May 17, 5:10am EDT

Fri May 17, 4:10am EDT

Fri May 17, 3:10am EDT

Fri May 17, 2:10am EDT

Fri May 17, 12:10am EDT

Thu May 16, 11:10pm EDT

Thu May 16, 10:10pm EDT

Thu May 16, 9:10pm EDT

Thu May 16, 8:10pm EDT

Thu May 16, 7:10pm EDT

Thu May 16, 6:10pm EDT

Thu May 16, 5:10pm EDT

Thu May 16, 4:10pm EDT

Thu May 16, 3:10pm EDT

Thu May 16, 2:10pm EDT

Thu May 16, 1:10pm EDT

Thu May 16, 12:10pm EDT

Thu May 16, 11:10am EDT

Thu May 16, 10:10am EDT

Thu May 16, 9:10am EDT

Thu May 16, 8:10am EDT

Thu May 16, 7:10am EDT

Thu May 16, 6:10am EDT

Thu May 16, 5:10am EDT

Thu May 16, 4:10am EDT

Thu May 16, 3:10am EDT

Thu May 16, 2:10am EDT

Thu May 16, 1:10am EDT

Thu May 16, 12:10am EDT

Wed May 15, 11:10pm EDT

Wed May 15, 10:10pm EDT

Wed May 15, 9:10pm EDT

Wed May 15, 8:10pm EDT

Wed May 15, 7:10pm EDT

Wed May 15, 6:10pm EDT

Wed May 15, 5:10pm EDT

Wed May 15, 4:10pm EDT

Wed May 15, 3:10pm EDT

Wed May 15, 2:10pm EDT

Wed May 15, 1:10pm EDT

Wed May 15, 12:10pm EDT

Wed May 15, 11:10am EDT

Wed May 15, 10:10am EDT

Wed May 15, 9:10am EDT

Wed May 15, 8:10am EDT

Wed May 15, 7:10am EDT

Wed May 15, 6:10am EDT

Wed May 15, 5:10am EDT

Wed May 15, 4:10am EDT

Wed May 15, 3:10am EDT

Wed May 15, 2:10am EDT

Wed May 15, 1:10am EDT

Wed May 15, 12:10am EDT

Tue May 14, 11:10pm EDT

Tue May 14, 10:10pm EDT

Tue May 14, 9:10pm EDT

Tue May 14, 8:10pm EDT

Tue May 14, 7:10pm EDT

Tue May 14, 6:10pm EDT

Tue May 14, 5:10pm EDT

Tue May 14, 4:10pm EDT

Tue May 14, 3:10pm EDT

Tue May 14, 2:10pm EDT

Tue May 14, 1:10pm EDT

Tue May 14, 12:10pm EDT

Tue May 14, 11:10am EDT

Tue May 14, 10:10am EDT

Tue May 14, 9:10am EDT

Tue May 14, 8:10am EDT

Tue May 14, 7:10am EDT

Tue May 14, 6:10am EDT

Tue May 14, 5:10am EDT

Tue May 14, 4:10am EDT

Tue May 14, 3:10am EDT

Tue May 14, 2:10am EDT

Tue May 14, 1:10am EDT

Tue May 14, 12:10am EDT

Mon May 13, 11:10pm EDT

Mon May 13, 10:10pm EDT

Mon May 13, 9:10pm EDT

Mon May 13, 8:10pm EDT

Mon May 13, 7:10pm EDT

Mon May 13, 6:10pm EDT

Mon May 13, 5:10pm EDT

Mon May 13, 4:10pm EDT

Mon May 13, 3:10pm EDT

Mon May 13, 2:10pm EDT

Mon May 13, 1:10pm EDT

Mon May 13, 12:10pm EDT

Mon May 13, 11:10am EDT

Mon May 13, 10:10am EDT

Mon May 13, 9:10am EDT

Mon May 13, 8:10am EDT

Mon May 13, 7:10am EDT

Mon May 13, 6:10am EDT

Mon May 13, 5:10am EDT

Mon May 13, 4:10am EDT

Mon May 13, 3:10am EDT

Mon May 13, 2:10am EDT

Mon May 13, 1:10am EDT

Mon May 13, 12:10am EDT

Sun May 12, 11:10pm EDT

Sun May 12, 10:10pm EDT

Sun May 12, 9:10pm EDT

Sun May 12, 8:10pm EDT

Sun May 12, 7:10pm EDT

Sun May 12, 6:10pm EDT

Sun May 12, 5:10pm EDT

Sun May 12, 4:10pm EDT

Sun May 12, 3:10pm EDT

Sun May 12, 2:10pm EDT

Sun May 12, 1:10pm EDT

Sun May 12, 12:10pm EDT

Sun May 12, 11:10am EDT

Sun May 12, 10:10am EDT

Sun May 12, 9:10am EDT

Sun May 12, 8:10am EDT

Sun May 12, 7:10am EDT

Sun May 12, 6:10am EDT

Sun May 12, 5:10am EDT

Sun May 12, 4:10am EDT

Sun May 12, 3:10am EDT

Sun May 12, 2:10am EDT

Sun May 12, 1:10am EDT

Sun May 12, 12:10am EDT

Sat May 11, 11:10pm EDT

Sat May 11, 10:10pm EDT

Sat May 11, 9:10pm EDT

Sat May 11, 8:10pm EDT

Sat May 11, 7:10pm EDT

Sat May 11, 6:10pm EDT

Sat May 11, 5:10pm EDT

Sat May 11, 4:10pm EDT

Sat May 11, 3:10pm EDT

Sat May 11, 2:10pm EDT

Sat May 11, 1:10pm EDT

Sat May 11, 12:10pm EDT

Sat May 11, 11:10am EDT

Sat May 11, 10:10am EDT

Sat May 11, 9:10am EDT

Sat May 11, 8:10am EDT

Sat May 11, 7:10am EDT

Sat May 11, 6:10am EDT

Sat May 11, 5:10am EDT

Sat May 11, 4:10am EDT

Sat May 11, 3:10am EDT

Sat May 11, 2:10am EDT

Sat May 11, 1:10am EDT

Sat May 11, 12:10am EDT

Fri May 10, 11:10pm EDT